Location: Unspecified
(50.0760°N, 14.4380°E)
Time: 06:16:02
(UTC+00:00)

Daily predictions for brighter satellites

Satellite Brightness Start Highest point End
(mag) Time Altitude Azimuth Time Altitude Azimuth Time Altitude Azimuth
NOSS 3-2 (C) 4.1 19:49:31 10° NW 19:56:56 88° SW 20:05:08 10° SE
Landsat 7 4.4 19:55:18 10° SE 19:59:49 45° ENE 20:04:22 10° N
Cosmos 1726 2.3 19:57:19 10° NNW 20:01:06 78° W 20:04:51 10° S
ARGOS 3.7 19:56:43 10° S 20:02:05 61° WSW 20:07:29 10° NNW
Cosmos 1674 2.8 19:59:26 10° SSW 20:03:16 80° WNW 20:07:09 10° N
Cosmos 1455 4.3 20:02:27 10° NNE 20:04:37 14° ENE 20:06:46 10° E
Cosmos 494 Rocket 4.1 20:00:52 10° SSW 20:06:09 90° WNW 20:11:28 10° NNE
Cosmos 1300 2.9 20:03:20 10° N 20:07:08 56° ENE 20:10:53 10° SSE
SL-8 R/B 3.8 20:05:37 10° WSW 20:10:21 58° SSE 20:15:06 10° E
Cosmos 2278 Rocket 2.6 20:05:06 10° S 20:10:28 45° ESE 20:15:52 10° NE
USA 215 4.4 20:09:11 10° S 20:14:55 32° SW 20:20:41 10° WNW
Helios 1B rocket 3.5 20:11:22 10° NE 20:14:58 28° E 20:18:32 10° SSE
CENTAUR R/B 3.3 20:08:19 10° NW 20:16:03 74° NE 20:24:33 10° SE
CARTOSAT-1 4.1 20:12:18 10° SE 20:16:26 46° ENE 20:20:36 10° N
S3M 4.1 20:10:32 10° S 20:16:55 80° E 20:23:20 10° NNE
Cosmos 1709 Rocket 4.4 20:10:52 10° N 20:16:58 52° ENE 20:22:56 10° SSE
Terra 2.4 20:14:45 10° SE 20:19:18 46° ENE 20:23:51 10° N
H-2A R/B 2.9 20:16:27 10° S 20:21:38 51° W 20:26:58 10° NNW
SPOT 1/Viking Rocket 3.6 20:16:31 10° SSE 20:21:40 84° ENE 20:26:51 10° NNW
Cosmos 1844 Rocket 3.4 20:16:59 10° SW 20:22:36 59° NW 20:28:12 10° NNE
NOSS 2-2 (E) 4.3 20:20:47 10° S 20:24:14 30° ESE 20:28:11 10° ENE
Helios 1A 3.0 20:21:14 10° SSE 20:25:26 89° ENE 20:29:42 10° NNW
NOSS 3-4 (A) 3.7 20:21:59 10° SSW 20:27:54 51° ESE 20:34:10 10° NE
NOSS 3-4 (C) 3.7 20:22:05 10° SSW 20:28:00 51° ESE 20:34:15 10° NE
SL-27 R/B 3.1 20:27:47 10° NNW 20:31:20 46° ENE 20:34:22 13° SE
ERS-1 Rocket 3.6 20:27:55 10° S 20:32:50 52° W 20:37:47 10° NNW
Cosmos 1844 4.4 20:29:05 10° SW 20:34:45 62° WNW 20:40:31 10° NNE
Meteor 1-21 Rocket 4.3 20:29:40 10° S 20:35:32 85° E 20:41:19 10° NNE
ATLAS 5 CENTAUR R/B 2.2 20:32:12 10° S 20:36:24 39° ESE 20:41:02 10° NE
Cosmos 1553 Rocket 4.4 20:32:29 10° SSW 20:38:30 66° WNW 20:44:36 10° N
RESURS DK-1 3.4 20:37:54 12° SSE 20:40:58 27° ESE 20:44:28 10° NE
Cosmos 1992 Rocket 4.0 20:42:33 10° NNW 20:47:48 88° ENE 20:52:16 14° SSE
Cosmos 1328 4.0 20:45:49 13° S 20:49:14 53° E 20:53:06 10° NNE
Cosmos 1833 Rocket 2.7 20:45:29 10° NNW 20:51:07 79° WSW 20:55:55 15° SSE
DMSP B5D2-2 4.3 20:46:14 10° NNE 20:51:30 74° WNW 20:56:41 10° SSW
Iridium 75 3.2 20:50:40 10° N 20:52:26 55° E 20:52:53 36° SE
CZ-2C R/B 3.3 20:48:33 10° NNE 20:53:34 37° E 20:57:31 15° SSE
Cosmos 2082 Rocket 2.3 20:48:31 10° NNW 20:54:17 84° WSW 20:59:03 15° SSE
NOSS 2-2 (D) 3.7 20:51:38 10° SSW 20:55:23 47° ESE 20:59:45 10° NE
Cosmos 2297 4.2 20:51:35 10° S 20:56:51 42° ESE 21:02:13 10° NE
Cosmos 2251 Rocket 3.9 20:51:41 10° SSW 20:57:00 68° WNW 21:02:19 10° NNE
YAOGAN 11 4.2 20:54:03 15° SSE 20:57:47 74° ENE 21:02:19 10° N
ATLAS 3B R/B 4.1 20:55:39 10° WNW 21:00:58 26° WSW 21:06:14 10° SSW
Meteor 2-2 Rocket 4.3 20:56:36 10° N 21:02:16 79° ENE 21:06:55 16° SSE
Cosmos 2221 3.3 20:58:30 10° NNW 21:02:41 48° W 21:06:43 10° SSW
Cosmos 405 Rocket 3.9 21:00:36 10° N 21:03:56 30° ENE 21:06:17 16° SE
Cosmos 2315 Rocket 4.0 20:57:57 10° S 21:04:15 78° E 21:10:39 10° NNE
Cosmos 1626 2.2 21:05:22 12° SSW 21:08:49 82° WNW 21:12:34 10° N
Orbus 7S? 4.2 21:10:50 16° ESE 21:10:50 16° ESE 21:11:55 10° E
SL-14 R/B 4.4 21:06:59 10° SSW 21:10:43 42° WNW 21:14:32 10° N
Cosmos 1461 3.6 21:06:48 10° SW 21:11:30 68° NW 21:16:18 10° NE
SPOT 5 4.2 21:07:01 10° SSW 21:11:50 38° W 21:16:49 10° NNW
Cosmos 2184 Rocket 4.3 21:07:16 10° N 21:13:31 57° ENE 21:18:18 17° SSE
Meteor 1-27 4.3 21:08:16 10° N 21:14:09 78° ENE 21:18:41 17° SSE
Cosmos 371 Rocket 3.9 21:14:11 10° NNW 21:18:55 48° ENE 21:22:31 16° SE
Lacrosse 5 3.3 21:14:50 10° W 21:19:38 42° NNW 21:24:28 10° ENE
Cosmos 1328 Rocket 3.8 21:17:10 10° N 21:21:28 58° ENE 21:24:17 21° SSE
NOSS 2-2 (C) 3.3 21:17:36 10° SW 21:21:29 78° SE 21:26:08 10° NE
Okean 3 Rocket 3.6 21:18:12 12° SSW 21:22:09 78° W 21:26:35 10° N
Cosmos 407 Rocket 4.1 21:19:54 19° SSE 21:23:04 38° ESE 21:27:50 10° NE
Meteor 1-29 3.2 21:20:08 10° N 21:23:32 67° WNW 21:26:21 14° SSW
Aureole 3 Rocket 3.8 21:18:29 10° S 21:25:30 86° W 21:30:26 10° N
CZ-2C R/B 3.8 21:26:09 15° S 21:30:59 56° W 21:36:35 10° NNW
Cosmos 1743 Rocket 4.4 21:30:51 21° SE 21:33:09 36° E 21:37:14 10° NNE
Meteor 2-10 Rocket 4.0 21:28:20 10° N 21:33:22 51° ENE 21:36:58 19° SE
Cosmos 1703 3.2 21:31:45 19° S 21:34:28 88° W 21:38:23 10° N
Cosmos 2228 Rocket 3.5 21:30:24 10° N 21:34:47 52° ENE 21:37:26 22° SE
COSMOS 2487 3.3 21:34:00 10° N 21:37:25 42° ENE 21:39:20 21° ESE
Cosmos 1190 Rocket 4.3 21:35:19 20° S 21:38:46 51° ESE 21:43:49 10° NNE
Cosmos 1455 2.6 21:36:56 10° NNW 21:40:39 56° W 21:42:56 22° SSW
ATLAS 2AS CENTAUR R/B 4.4 21:34:41 10° W 21:42:18 44° NNW 21:49:59 10° NE
Cosmos 1869 3.6 21:43:55 10° N 21:47:54 56° ENE 21:49:59 25° SE
Cosmos 332 Rocket 3.8 21:44:44 10° NNW 21:49:42 86° ENE 21:52:43 24° SSE
Helios 1B rocket 4.0 21:46:36 10° N 21:50:16 32° WNW 21:53:55 10° SW
SAR-Lupe-4 3.6 21:49:55 28° S 21:51:40 76° WSW 21:55:17 10° NNW
SL-8 R/B 3.6 21:47:55 10° W 21:52:45 74° S 21:57:35 10° E
Nadezhda 1 Rocket 4.2 21:49:58 21° S 21:54:24 64° E 22:00:43 10° NNE
Cosmos 2278 Rocket 3.6 21:49:23 10° WSW 21:54:40 38° NW 22:00:00 10° NNE
ADEOS Rocket 3.7 21:49:02 10° NNE 21:54:41 40° E 21:58:35 21° SSE
Terra 3.5 21:53:29 11° SSW 21:57:15 26° W 22:01:13 10° NW
Cosmos 1500 Rocket 3.9 21:55:07 26° SSE 21:57:15 50° E 22:01:27 10° NNE
Cosmos 1151 Rocket 2.9 21:54:11 10° N 21:58:29 87° W 22:00:46 27° S
Mayak -0.4 21:54:46 10° NNE 21:58:37 35° E 22:00:18 25° SE
Meteor 2-14 Rocket 4.4 21:54:33 10° N 22:00:39 79° E 22:04:38 23° SSE
Cosmos 2058 2.9 21:58:59 23° SSW 22:01:31 80° W 22:05:40 10° N
NOSS 8 (F) 4.1 22:02:22 25° SSW 22:04:05 74° SE 22:07:27 10° NE
CENTAUR R/B 3.9 21:59:21 10° NW 22:06:34 39° WSW 22:12:04 18° S
SAR-Lupe-1 4.4 22:08:28 29° SSW 22:10:01 55° WSW 22:13:35 10° NNW
CZ-4B R/B 4.4 22:06:56 10° NNE 22:11:50 37° E 22:14:25 23° SSE
Cosmos 2151 3.0 22:09:21 24° SSW 22:11:51 78° WNW 22:16:07 10° N
Cosmos 1408 Rocket 4.4 22:11:33 16° SW 22:14:55 48° WNW 22:19:16 10° N
RESURS DK-1 3.7 22:14:58 10° WSW 22:18:52 40° NW 22:22:49 10° NNE
COBE Rocket 4.4 22:13:52 10° N 22:18:53 61° WNW 22:22:53 17° SSW
ALOS 2 2.6 22:18:43 28° SSE 22:21:00 85° ENE 22:25:25 10° NNW
ATLAS 5 CENTAUR R/B 3.0 22:16:34 10° WSW 22:21:02 44° NW 22:26:03 10° NE
Timation 2 Rocket 4.2 22:14:57 10° NNW 22:21:40 81° WSW 22:26:17 22° SSE
Cosmos 2369 Rocket 2.7 22:18:58 25° SSE 22:21:48 43° ESE 22:27:06 10° NE
Cosmos 1515 Rocket 4.1 22:17:47 10° NNW 22:22:06 52° W 22:24:27 25° SSW
COSMOS 2455 4.3 22:21:20 10° NNW 22:26:51 35° NE 22:32:21 10° ESE
H-2A R/B 2.1 22:28:09 28° SSE 22:30:10 67° ENE 22:34:17 10° N
Iridium 46 4.4 22:29:33 10° N 22:33:22 81° W 22:34:33 39° S
CZ-2C R/B 3.8 22:28:52 10° N 22:33:53 39° WNW 22:38:45 10° SW
Cosmos 614 Rocket 3.9 22:32:37 24° SSW 22:35:50 85° ESE 22:40:58 10° NNE
Cosmos 304 Rocket 3.7 22:31:07 10° NNW 22:35:57 85° ENE 22:38:33 27° SSE
Cosmos 2082 Rocket 4.3 22:34:17 10° WNW 22:37:29 15° W 22:40:40 10° SW
Cosmos 1140 Rocket 3.4 22:34:47 24° SSW 22:37:56 84° ESE 22:43:05 10° NNE
Cosmos 405 Rocket 4.4 22:36:50 10° NW 22:39:50 23° W 22:41:28 17° SW
Cosmos 2098 Rocket 4.4 22:32:51 10° N 22:40:18 72° ENE 22:44:37 23° SSE
CZ-4C R/B 3.2 22:39:27 34° S 22:40:59 73° WSW 22:44:42 10° NNW
SL-19 R/B 4.2 22:36:44 10° NNE 22:42:14 78° WNW 22:45:43 22° SSW
Cosmos 1900 4.3 22:38:29 16° SW 22:42:22 83° NW 22:47:18 10° NE
BREEZE M DEB (TANK) 3.7 22:33:32 10° WSW 22:48:08 64° SSE 22:52:05 10° E
Cosmos 468 Rocket 4.3 22:44:37 10° NNW 22:49:44 60° ENE 22:53:16 20° SE
Cosmos 1943 Rocket 2.4 22:47:39 27° S 22:50:30 54° ESE 22:55:57 10° NE
BREEZE-M DEB (TANK) 2.9 22:49:18 10° WSW 22:54:05 62° SSE 22:57:35 10° E
deb Chang Zheng 4 4.1 22:50:14 10° NNE 22:54:31 47° E 22:56:22 29° SSE
Cosmos 1741 Rocket 4.3 22:52:02 28° S 22:54:38 53° ESE 22:59:46 10° NNE
In-Cosmos 22 Rocket 4.1 22:53:24 27° S 22:56:23 81° E 23:01:53 10° NNE
Cosmos 1954 Rocket 4.2 22:56:32 20° SW 23:00:06 68° WNW 23:05:17 10° NNE
Lacrosse 5 3.2 22:58:40 10° WNW 23:03:29 41° N 23:08:16 10° E
NOSS 2 (F) 4.3 23:00:45 10° NW 23:03:35 87° SW 23:04:14 50° SE
Cosmos 676 Rocket 4.5 23:00:09 17° SW 23:04:04 56° WNW 23:09:12 10° NNE
Cosmos 1933 3.2 23:00:59 10° N 23:05:01 86° W 23:06:41 35° S
Cosmos 1825 3.9 23:04:45 18° ESE 23:06:15 23° E 23:09:18 10° NE
Cosmos 2263 4.2 23:08:09 26° SSW 23:11:21 72° ESE 23:16:58 10° NNE
COSMOS 2487 4.5 23:10:06 10° WNW 23:12:22 16° W 23:13:03 15° WSW
Cosmos 2208 Rocket 4.0 23:07:09 10° NNW 23:12:34 80° WSW 23:15:44 26° SSE
MOS 1 Rocket 4.1 23:08:05 10° NNE 23:12:42 41° E 23:14:58 24° SSE
Sich 1 3.0 23:12:12 32° S 23:14:12 79° E 23:18:40 10° NNE
Cosmos 1606 3.7 23:12:44 10° N 23:16:22 39° ENE 23:18:27 21° SE
Cosmos 1833 4.1 23:12:36 10° NNW 23:18:12 76° WSW 23:21:38 24° SSE
Cosmos 2181 Rocket 4.1 23:14:44 24° SSW 23:18:44 77° W 23:24:59 10° N
Cosmos 1805 Rocket 3.7 23:16:41 29° SSW 23:18:51 66° WNW 23:23:17 10° N
Lacrosse 4 Rocket 2.6 23:19:26 25° SSE 23:20:53 30° ESE 23:24:50 10° NE
Cosmos 1818 3.6 23:16:41 10° NW 23:22:08 64° SW 23:25:22 24° SSE
Cosmos 2242 Rocket 3.9 23:18:41 10° N 23:23:07 60° ENE 23:25:37 24° SSE
Cosmos 864 Rocket 4.5 23:18:30 10° N 23:24:49 84° W 23:28:42 24° S
SL-8 Rocket 4.2 23:18:53 10° NNW 23:25:06 64° W 23:28:55 25° SSW
Cosmos 405 3.5 23:27:01 33° SSE 23:28:13 49° E 23:31:41 10° NNE
Cosmos 1862 Rocket 3.8 23:24:28 10° N 23:28:57 65° ENE 23:31:28 25° SSE
Cosmos 2218 Rocket 4.1 23:25:19 10° NNW 23:31:27 67° W 23:35:13 25° S
Mayak 0.4 23:30:36 10° N 23:34:08 27° WNW 23:36:55 14° WSW
SL-8 R/B 4.0 23:30:27 10° W 23:35:03 45° SSW 23:39:35 10° SE
CZ-4C R/B 3.7 23:36:47 23° SE 23:38:49 53° ENE 23:42:26 10° N
Cosmos 1707 Rocket 4.3 23:35:09 10° NNW 23:39:15 39° W 23:41:07 26° SW
Cosmos 2219 3.9 23:34:03 10° NNW 23:39:37 52° NE 23:45:06 10° SE
ADEOS Rocket 3.9 23:34:42 10° N 23:40:15 43° WNW 23:45:32 14° SW
Cosmos 1633 Rocket 3.1 23:40:23 29° SSW 23:42:34 74° W 23:47:02 10° N
Cosmos 1763 Rocket 3.4 23:39:27 10° NNW 23:44:32 77° WSW 23:47:39 24° SSE
Cosmos 1892 3.5 23:42:55 25° SW 23:44:37 41° WNW 23:48:14 10° N
BREEZE-M TANK 3.5 23:45:27 24° SSE 23:45:27 24° SSE 23:47:28 10° ESE
Cosmos 540 Rocket 4.2 23:42:01 10° NNW 23:47:03 52° ENE 23:52:02 10° SE
Cosmos 1850 Rocket 4.4 23:44:36 20° SW 23:48:06 59° WNW 23:53:21 10° NNE
Cosmos 1470 Rocket 3.6 23:52:07 28° S 23:54:26 81° E 23:58:54 10° NNE
